Year,Month,Day,Hour,Minute,Value (Times are PST for temperature in C)
2007,05,30,00,00,13.50
2007,05,30,00,01,13.50
2007,05,30,00,02,13.50
2007,05,30,00,03,13.50
2007,05,30,00,04,13.50
2007,05,30,00,05,13.50
2007,05,30,00,06,13.50
2007,05,30,00,07,13.50
2007,05,30,00,08,13.50
2007,05,30,00,09,13.60
2007,05,30,00,10,13.60
2007,05,30,00,11,13.50
2007,05,30,00,12,13.50
2007,05,30,00,13,13.50
2007,05,30,00,14,13.50
2007,05,30,00,15,13.50
2007,05,30,00,16,13.50
2007,05,30,00,17,13.40
2007,05,30,00,18,13.40
2007,05,30,00,19,13.30
2007,05,30,00,20,13.30
2007,05,30,00,21,13.20
2007,05,30,00,22,13.10
2007,05,30,00,23,13.10
2007,05,30,00,24,13.00
2007,05,30,00,25,13.00
2007,05,30,00,26,12.90
2007,05,30,00,27,12.80
2007,05,30,00,28,12.80
2007,05,30,00,29,12.80
2007,05,30,00,30,12.80
2007,05,30,00,31,12.70
2007,05,30,00,32,12.70
2007,05,30,00,33,12.70
2007,05,30,00,34,12.60
2007,05,30,00,35,12.60
2007,05,30,00,36,12.60
2007,05,30,00,37,12.50
2007,05,30,00,38,12.50
2007,05,30,00,39,12.50
2007,05,30,00,40,12.40
2007,05,30,00,41,12.40
2007,05,30,00,42,12.40
2007,05,30,00,43,12.30
2007,05,30,00,44,12.30
2007,05,30,00,45,12.30
2007,05,30,00,46,12.30
2007,05,30,00,47,12.30
2007,05,30,00,48,12.30
2007,05,30,00,49,12.20
2007,05,30,00,50,12.20
2007,05,30,00,51,12.10
2007,05,30,00,52,12.10
2007,05,30,00,53,12.00
2007,05,30,00,54,12.00
2007,05,30,00,55,12.00
2007,05,30,00,56,12.00
2007,05,30,00,57,12.00
2007,05,30,00,58,12.00
2007,05,30,00,59,12.00
2007,05,30,01,00,12.00
2007,05,30,01,01,12.00
2007,05,30,01,02,12.10
2007,05,30,01,03,12.10
2007,05,30,01,04,12.10
2007,05,30,01,05,12.20
2007,05,30,01,06,12.20
2007,05,30,01,07,12.30
2007,05,30,01,08,12.30
2007,05,30,01,09,12.30
2007,05,30,01,10,12.30
2007,05,30,01,11,12.30
2007,05,30,01,12,12.30
2007,05,30,01,13,12.30
2007,05,30,01,14,12.30
2007,05,30,01,15,12.30
2007,05,30,01,16,12.30
2007,05,30,01,17,12.30
2007,05,30,01,18,12.30
2007,05,30,01,19,12.30
2007,05,30,01,20,12.30
2007,05,30,01,21,12.30
2007,05,30,01,22,12.30
2007,05,30,01,23,12.30
2007,05,30,01,24,12.30
2007,05,30,01,25,12.20
2007,05,30,01,26,12.20
2007,05,30,01,27,12.20
2007,05,30,01,28,12.20
2007,05,30,01,29,12.20
2007,05,30,01,30,12.10
2007,05,30,01,31,12.10
2007,05,30,01,32,12.10
2007,05,30,01,33,12.10
2007,05,30,01,34,12.10
2007,05,30,01,35,12.00
2007,05,30,01,36,12.00
2007,05,30,01,37,12.00
2007,05,30,01,38,11.90
2007,05,30,01,39,11.90
2007,05,30,01,40,11.90
2007,05,30,01,41,11.90
2007,05,30,01,42,11.90
2007,05,30,01,43,11.90
2007,05,30,01,44,11.90
2007,05,30,01,45,12.00
2007,05,30,01,46,12.00
2007,05,30,01,47,12.10
2007,05,30,01,48,12.10
2007,05,30,01,49,12.20
2007,05,30,01,50,12.20
2007,05,30,01,51,12.30
2007,05,30,01,52,12.30
2007,05,30,01,53,12.30
2007,05,30,01,54,12.30
2007,05,30,01,55,12.40
2007,05,30,01,56,12.40
2007,05,30,01,57,12.40
2007,05,30,01,58,12.40
2007,05,30,01,59,12.40
2007,05,30,02,00,12.40
2007,05,30,02,01,12.30
2007,05,30,02,02,12.30
2007,05,30,02,03,12.30
2007,05,30,02,04,12.30
2007,05,30,02,05,12.30
2007,05,30,02,06,12.20
2007,05,30,02,07,12.20
2007,05,30,02,08,12.10
2007,05,30,02,09,12.10
2007,05,30,02,10,12.10
2007,05,30,02,11,12.10
2007,05,30,02,12,12.10
2007,05,30,02,13,12.10
2007,05,30,02,14,12.10
2007,05,30,02,15,12.10
2007,05,30,02,16,12.20
2007,05,30,02,17,12.20
2007,05,30,02,18,12.20
2007,05,30,02,19,12.20
2007,05,30,02,20,12.20
2007,05,30,02,21,12.20
2007,05,30,02,22,12.20
2007,05,30,02,23,12.20
2007,05,30,02,24,12.20
2007,05,30,02,25,12.10
2007,05,30,02,26,12.10
2007,05,30,02,27,12.10
2007,05,30,02,28,12.10
2007,05,30,02,29,12.10
2007,05,30,02,30,12.10
2007,05,30,02,31,12.10
2007,05,30,02,32,12.10
2007,05,30,02,33,12.00
2007,05,30,02,34,12.00
2007,05,30,02,35,12.00
2007,05,30,02,36,11.90
2007,05,30,02,37,11.90
2007,05,30,02,38,11.90
2007,05,30,02,39,11.80
2007,05,30,02,40,11.80
2007,05,30,02,41,11.80
2007,05,30,02,42,11.80
2007,05,30,02,43,11.90
2007,05,30,02,44,11.90
2007,05,30,02,45,11.90
2007,05,30,02,46,11.90
2007,05,30,02,47,11.90
2007,05,30,02,48,11.90
2007,05,30,02,49,11.90
2007,05,30,02,50,11.90
2007,05,30,02,51,11.90
2007,05,30,02,52,11.90
2007,05,30,02,53,11.90
2007,05,30,02,54,11.90
2007,05,30,02,55,11.90
2007,05,30,02,56,12.00
2007,05,30,02,57,12.00
2007,05,30,02,58,12.00
2007,05,30,02,59,12.00
2007,05,30,03,00,12.10
2007,05,30,03,01,12.10
2007,05,30,03,02,12.20
2007,05,30,03,03,12.30
2007,05,30,03,04,12.40
2007,05,30,03,05,12.50
2007,05,30,03,06,12.50
2007,05,30,03,07,12.50
2007,05,30,03,08,12.50
2007,05,30,03,09,12.60
2007,05,30,03,10,12.60
2007,05,30,03,11,12.60
2007,05,30,03,12,12.70
2007,05,30,03,13,12.70
2007,05,30,03,14,12.70
2007,05,30,03,15,12.70
2007,05,30,03,16,12.70
2007,05,30,03,17,12.70
2007,05,30,03,18,12.70
2007,05,30,03,19,12.80
2007,05,30,03,20,12.80
2007,05,30,03,21,12.80
2007,05,30,03,22,12.80
2007,05,30,03,23,12.80
2007,05,30,03,24,12.80
2007,05,30,03,25,12.80
2007,05,30,03,26,12.70
2007,05,30,03,27,12.70
2007,05,30,03,28,12.70
2007,05,30,03,29,12.70
2007,05,30,03,30,12.70
2007,05,30,03,31,12.70
2007,05,30,03,32,12.70
2007,05,30,03,33,12.70
2007,05,30,03,34,12.70
2007,05,30,03,35,12.70
2007,05,30,03,36,12.70
2007,05,30,03,37,12.70
2007,05,30,03,38,12.70
2007,05,30,03,39,12.70
2007,05,30,03,40,12.70
2007,05,30,03,41,12.70
2007,05,30,03,42,12.60
2007,05,30,03,43,12.60
2007,05,30,03,44,12.60
2007,05,30,03,45,12.50
2007,05,30,03,46,12.50
2007,05,30,03,47,12.40
2007,05,30,03,48,12.40
2007,05,30,03,49,12.30
2007,05,30,03,50,12.30
2007,05,30,03,51,12.30
2007,05,30,03,52,12.20
2007,05,30,03,53,12.20
2007,05,30,03,54,12.20
2007,05,30,03,55,12.10
2007,05,30,03,56,12.10
2007,05,30,03,57,12.10
2007,05,30,03,58,12.00
2007,05,30,03,59,12.00
2007,05,30,04,00,12.00
2007,05,30,04,01,12.00
2007,05,30,04,02,12.00
2007,05,30,04,03,12.00
2007,05,30,04,04,12.00
2007,05,30,04,05,12.00
2007,05,30,04,06,12.00
2007,05,30,04,07,12.00
2007,05,30,04,08,12.00
2007,05,30,04,09,12.00
2007,05,30,04,10,12.10
2007,05,30,04,11,12.10
2007,05,30,04,12,12.10
2007,05,30,04,13,12.10
2007,05,30,04,14,12.10
2007,05,30,04,15,12.10
2007,05,30,04,16,12.10
2007,05,30,04,17,12.10
2007,05,30,04,18,12.10
2007,05,30,04,19,12.10
2007,05,30,04,20,12.10
2007,05,30,04,21,12.10
2007,05,30,04,22,12.10
2007,05,30,04,23,12.10
2007,05,30,04,24,12.00
2007,05,30,04,25,12.10
2007,05,30,04,26,12.10
2007,05,30,04,27,12.00
2007,05,30,04,28,12.00
2007,05,30,04,29,12.00
2007,05,30,04,30,12.00
2007,05,30,04,31,11.90
2007,05,30,04,32,11.90
2007,05,30,04,33,11.80
2007,05,30,04,34,11.80
2007,05,30,04,35,11.80
2007,05,30,04,36,11.80
2007,05,30,04,37,11.70
2007,05,30,04,38,11.60
2007,05,30,04,39,11.50
2007,05,30,04,40,11.40
2007,05,30,04,41,11.40
2007,05,30,04,42,11.30
2007,05,30,04,43,11.20
2007,05,30,04,44,11.20
2007,05,30,04,45,11.10
2007,05,30,04,46,11.10
2007,05,30,04,47,11.10
2007,05,30,04,48,11.00
2007,05,30,04,49,10.90
2007,05,30,04,50,10.90
2007,05,30,04,51,10.90
2007,05,30,04,52,10.90
2007,05,30,04,53,10.90
2007,05,30,04,54,10.90
2007,05,30,04,55,10.90
2007,05,30,04,56,10.80
2007,05,30,04,57,10.80
2007,05,30,04,58,10.80
2007,05,30,04,59,10.70
2007,05,30,05,00,10.70
2007,05,30,05,01,10.70
2007,05,30,05,02,10.60
2007,05,30,05,03,10.60
2007,05,30,05,04,10.60
2007,05,30,05,05,10.60
2007,05,30,05,06,10.60
2007,05,30,05,07,10.50
2007,05,30,05,08,10.40
2007,05,30,05,09,10.40
2007,05,30,05,10,10.40
2007,05,30,05,11,10.40
2007,05,30,05,12,10.40
2007,05,30,05,13,10.30
2007,05,30,05,14,10.30
2007,05,30,05,15,10.30
2007,05,30,05,16,10.20
2007,05,30,05,17,10.20
2007,05,30,05,18,10.20
2007,05,30,05,19,10.20
2007,05,30,05,20,10.20
2007,05,30,05,21,10.20
2007,05,30,05,22,10.20
2007,05,30,05,23,10.20
2007,05,30,05,24,10.20
2007,05,30,05,25,10.20
2007,05,30,05,26,10.20
2007,05,30,05,27,10.10
2007,05,30,05,28,10.10
2007,05,30,05,29,10.10
2007,05,30,05,30,10.10
2007,05,30,05,31,10.10
2007,05,30,05,32,10.00
2007,05,30,05,33,9.90
2007,05,30,05,34,9.90
2007,05,30,05,35,9.90
2007,05,30,05,36,9.80
2007,05,30,05,37,9.80
2007,05,30,05,38,9.80
2007,05,30,05,39,9.80
2007,05,30,05,40,9.90
2007,05,30,05,41,9.90
2007,05,30,05,42,9.90
2007,05,30,05,43,9.90
2007,05,30,05,44,9.90
2007,05,30,05,45,9.90
2007,05,30,05,46,10.00
2007,05,30,05,47,10.10
2007,05,30,05,48,10.10
2007,05,30,05,49,10.10
2007,05,30,05,50,10.10
2007,05,30,05,51,10.10
2007,05,30,05,52,10.10
2007,05,30,05,53,10.10
2007,05,30,05,54,10.10
2007,05,30,05,55,10.10
2007,05,30,05,56,10.10
2007,05,30,05,57,10.10
2007,05,30,05,58,10.10
2007,05,30,05,59,10.10
2007,05,30,06,00,10.10
2007,05,30,06,01,10.10
2007,05,30,06,02,10.10
2007,05,30,06,03,10.10
2007,05,30,06,04,10.20
2007,05,30,06,05,10.20
2007,05,30,06,06,10.30
2007,05,30,06,07,10.30
2007,05,30,06,08,10.30
2007,05,30,06,09,10.40
2007,05,30,06,10,10.40
2007,05,30,06,11,10.40
2007,05,30,06,12,10.40
2007,05,30,06,13,10.40
2007,05,30,06,14,10.50
2007,05,30,06,15,10.60
2007,05,30,06,16,10.60
2007,05,30,06,17,10.60
2007,05,30,06,18,10.60
2007,05,30,06,19,10.60
2007,05,30,06,20,10.60
2007,05,30,06,21,10.60
2007,05,30,06,22,10.60
2007,05,30,06,23,10.60
2007,05,30,06,24,10.60
2007,05,30,06,25,10.60
2007,05,30,06,26,10.60
2007,05,30,06,27,10.60
2007,05,30,06,28,10.70
2007,05,30,06,29,10.70
2007,05,30,06,30,10.70
2007,05,30,06,31,10.80
2007,05,30,06,32,10.80
2007,05,30,06,33,10.80
2007,05,30,06,34,10.90
2007,05,30,06,35,10.90
2007,05,30,06,36,10.90
2007,05,30,06,37,11.00
2007,05,30,06,38,11.10
2007,05,30,06,39,11.10
2007,05,30,06,40,11.20
2007,05,30,06,41,11.30
2007,05,30,06,42,11.40
2007,05,30,06,43,11.40
2007,05,30,06,44,11.60
2007,05,30,06,45,11.60
2007,05,30,06,46,11.60
2007,05,30,06,47,11.60
2007,05,30,06,48,11.60
2007,05,30,06,49,11.60
2007,05,30,06,50,11.60
2007,05,30,06,51,11.60
2007,05,30,06,52,11.70
2007,05,30,06,53,11.80
2007,05,30,06,54,11.80
2007,05,30,06,55,11.80
2007,05,30,06,56,11.80
2007,05,30,06,57,11.90
2007,05,30,06,58,12.00
2007,05,30,06,59,12.00
2007,05,30,07,00,12.10
2007,05,30,07,01,12.20
2007,05,30,07,02,12.30
2007,05,30,07,03,12.30
2007,05,30,07,04,12.40
2007,05,30,07,05,12.50
2007,05,30,07,06,12.50
2007,05,30,07,07,12.50
2007,05,30,07,08,12.60
2007,05,30,07,09,12.60
2007,05,30,07,10,12.70
2007,05,30,07,11,12.70
2007,05,30,07,12,12.80
2007,05,30,07,13,12.90
2007,05,30,07,14,12.90
2007,05,30,07,15,13.00
2007,05,30,07,16,13.00
2007,05,30,07,17,13.10
2007,05,30,07,18,13.20
2007,05,30,07,19,13.30
2007,05,30,07,20,13.30
2007,05,30,07,21,13.30
2007,05,30,07,22,13.30
2007,05,30,07,23,13.30
2007,05,30,07,24,13.40
2007,05,30,07,25,13.40
2007,05,30,07,26,13.40
2007,05,30,07,27,13.50
2007,05,30,07,28,13.50
2007,05,30,07,29,13.50
2007,05,30,07,30,13.60
2007,05,30,07,31,13.60
2007,05,30,07,32,13.70
2007,05,30,07,33,13.70
2007,05,30,07,34,13.70
2007,05,30,07,35,13.70
2007,05,30,07,36,13.70
2007,05,30,07,37,13.70
2007,05,30,07,38,13.80
2007,05,30,07,39,13.80
2007,05,30,07,40,13.90
2007,05,30,07,41,13.90
2007,05,30,07,42,14.00
2007,05,30,07,43,14.10
2007,05,30,07,44,14.10
2007,05,30,07,45,14.20
2007,05,30,07,46,14.20
2007,05,30,07,47,14.20
2007,05,30,07,48,14.30
2007,05,30,07,49,14.40
2007,05,30,07,50,14.50
2007,05,30,07,51,14.60
2007,05,30,07,52,14.70
2007,05,30,07,53,14.70
2007,05,30,07,54,14.70
2007,05,30,07,55,14.70
2007,05,30,07,56,14.70
2007,05,30,07,57,14.80
2007,05,30,07,58,14.80
2007,05,30,07,59,14.90
2007,05,30,08,00,14.90
2007,05,30,08,01,14.90
2007,05,30,08,02,14.90
2007,05,30,08,03,14.90
2007,05,30,08,04,14.90
2007,05,30,08,05,14.90
2007,05,30,08,06,14.90
2007,05,30,08,07,14.90
2007,05,30,08,08,14.90
2007,05,30,08,09,15.00
2007,05,30,08,10,15.10
2007,05,30,08,11,15.20
2007,05,30,08,12,15.20
2007,05,30,08,13,15.30
2007,05,30,08,14,15.30
2007,05,30,08,15,15.40
2007,05,30,08,16,15.50
2007,05,30,08,17,15.60
2007,05,30,08,18,15.60
2007,05,30,08,19,15.80
2007,05,30,08,20,15.80
2007,05,30,08,21,16.00
2007,05,30,08,22,16.10
2007,05,30,08,23,16.20
2007,05,30,08,24,16.30
2007,05,30,08,25,16.30
2007,05,30,08,26,16.40
2007,05,30,08,27,16.40
2007,05,30,08,28,16.40
2007,05,30,08,29,16.40
2007,05,30,08,30,16.40
2007,05,30,08,31,16.40
2007,05,30,08,32,16.40
2007,05,30,08,33,16.50
2007,05,30,08,34,16.60
2007,05,30,08,35,16.70
2007,05,30,08,36,16.80
2007,05,30,08,37,16.90
2007,05,30,08,38,17.10
2007,05,30,08,39,17.30
2007,05,30,08,40,17.30
2007,05,30,08,41,17.20
2007,05,30,08,42,17.10
2007,05,30,08,43,17.10
2007,05,30,08,44,17.10
2007,05,30,08,45,17.10
2007,05,30,08,46,17.10
2007,05,30,08,47,17.20
2007,05,30,08,48,17.30
2007,05,30,08,49,17.30
2007,05,30,08,50,17.30
2007,05,30,08,51,17.30
2007,05,30,08,52,17.30
2007,05,30,08,53,17.30
2007,05,30,08,54,17.30
2007,05,30,08,55,17.30
2007,05,30,08,56,17.40
2007,05,30,08,57,17.50
2007,05,30,08,58,17.50
2007,05,30,08,59,17.50
2007,05,30,09,00,17.40
2007,05,30,09,01,17.20
2007,05,30,09,02,17.10
2007,05,30,09,03,17.00
2007,05,30,09,04,16.90
2007,05,30,09,05,16.80
2007,05,30,09,06,16.90
2007,05,30,09,07,17.00
2007,05,30,09,08,17.20
2007,05,30,09,09,17.30
2007,05,30,09,10,17.30
2007,05,30,09,11,17.30
2007,05,30,09,12,17.40
2007,05,30,09,13,17.30
2007,05,30,09,14,17.30
2007,05,30,09,15,17.10
2007,05,30,09,16,17.10
2007,05,30,09,17,17.00
2007,05,30,09,18,16.90
2007,05,30,09,19,16.70
2007,05,30,09,20,16.70
2007,05,30,09,21,16.70
2007,05,30,09,22,16.70
2007,05,30,09,23,16.80
2007,05,30,09,24,16.80
2007,05,30,09,25,16.70
2007,05,30,09,26,16.70
2007,05,30,09,27,16.70
2007,05,30,09,28,16.70
2007,05,30,09,29,16.70
2007,05,30,09,30,16.70
2007,05,30,09,31,16.70
2007,05,30,09,32,16.80
2007,05,30,09,33,17.00
2007,05,30,09,34,17.10
2007,05,30,09,35,17.30
2007,05,30,09,36,17.30
2007,05,30,09,37,17.30
2007,05,30,09,38,17.30
2007,05,30,09,39,17.30
2007,05,30,09,40,17.30
2007,05,30,09,41,17.30
2007,05,30,09,42,17.20
2007,05,30,09,43,17.20
2007,05,30,09,44,17.20
2007,05,30,09,45,17.30
2007,05,30,09,46,17.30
2007,05,30,09,47,17.30
2007,05,30,09,48,17.30
2007,05,30,09,49,17.30
2007,05,30,09,50,17.30
2007,05,30,09,51,17.30
2007,05,30,09,52,17.30
2007,05,30,09,53,17.30
2007,05,30,09,54,17.30
2007,05,30,09,55,17.30
2007,05,30,09,56,17.20
2007,05,30,09,57,17.20
2007,05,30,09,58,17.10
2007,05,30,09,59,17.10
2007,05,30,10,00,17.10
2007,05,30,10,01,17.20
2007,05,30,10,02,17.20
2007,05,30,10,03,17.50
2007,05,30,10,04,17.80
2007,05,30,10,05,17.90
2007,05,30,10,06,17.90
2007,05,30,10,07,17.90
2007,05,30,10,08,17.90
2007,05,30,10,09,18.00
2007,05,30,10,10,17.90
2007,05,30,10,11,18.10
2007,05,30,10,12,18.10
2007,05,30,10,13,18.10
2007,05,30,10,14,18.10
2007,05,30,10,15,18.10
2007,05,30,10,16,18.20
2007,05,30,10,17,18.20
2007,05,30,10,18,18.20
2007,05,30,10,19,18.10
2007,05,30,10,20,18.20
2007,05,30,10,21,18.30
2007,05,30,10,22,18.30
2007,05,30,10,23,18.40
2007,05,30,10,24,18.40
2007,05,30,10,25,18.50
2007,05,30,10,26,18.60
2007,05,30,10,27,18.70
2007,05,30,10,28,18.60
2007,05,30,10,29,18.60
2007,05,30,10,30,18.50
2007,05,30,10,31,18.40
2007,05,30,10,32,18.40
2007,05,30,10,33,18.40
2007,05,30,10,34,18.40
2007,05,30,10,35,18.40
2007,05,30,10,36,18.40
2007,05,30,10,37,18.50
2007,05,30,10,38,18.60
2007,05,30,10,39,18.70
2007,05,30,10,40,18.90
2007,05,30,10,41,19.10
2007,05,30,10,42,19.00
2007,05,30,10,43,18.80
2007,05,30,10,44,18.70
2007,05,30,10,45,18.60
2007,05,30,10,46,18.50
2007,05,30,10,47,18.50
2007,05,30,10,48,18.40
2007,05,30,10,49,18.40
2007,05,30,10,50,18.40
2007,05,30,10,51,18.50
2007,05,30,10,52,18.60
2007,05,30,10,53,18.80
2007,05,30,10,54,18.80
2007,05,30,10,55,18.90
2007,05,30,10,56,18.90
2007,05,30,10,57,19.10
2007,05,30,10,58,19.20
2007,05,30,10,59,19.30
2007,05,30,11,00,19.40
2007,05,30,11,01,19.30
2007,05,30,11,02,19.30
2007,05,30,11,03,19.30
2007,05,30,11,04,19.30
2007,05,30,11,05,19.10
2007,05,30,11,06,19.10
2007,05,30,11,07,19.20
2007,05,30,11,08,19.30
2007,05,30,11,09,19.30
2007,05,30,11,10,19.30
2007,05,30,11,11,19.30
2007,05,30,11,12,19.20
2007,05,30,11,13,19.10
2007,05,30,11,14,19.10
2007,05,30,11,15,19.10
2007,05,30,11,16,19.10
2007,05,30,11,17,19.10
2007,05,30,11,18,19.10
2007,05,30,11,19,19.20
2007,05,30,11,20,19.40
2007,05,30,11,21,19.40
2007,05,30,11,22,19.10
2007,05,30,11,23,19.00
2007,05,30,11,24,18.90
2007,05,30,11,25,18.90
2007,05,30,11,26,18.70
2007,05,30,11,27,18.60
2007,05,30,11,28,18.60
2007,05,30,11,29,18.50
2007,05,30,11,30,18.30
2007,05,30,11,31,18.30
2007,05,30,11,32,18.30
2007,05,30,11,33,18.20
2007,05,30,11,34,18.30
2007,05,30,11,35,18.30
2007,05,30,11,36,18.40
2007,05,30,11,37,18.40
2007,05,30,11,38,18.50
2007,05,30,11,39,18.60
2007,05,30,11,40,18.90
2007,05,30,11,41,19.20
2007,05,30,11,42,19.30
2007,05,30,11,43,19.30
2007,05,30,11,44,19.30
2007,05,30,11,45,19.20
2007,05,30,11,46,19.10
2007,05,30,11,47,19.20
2007,05,30,11,48,19.30
2007,05,30,11,49,19.40
2007,05,30,11,50,19.40
2007,05,30,11,51,19.40
2007,05,30,11,52,19.40
2007,05,30,11,53,19.20
2007,05,30,11,54,19.10
2007,05,30,11,55,19.20
2007,05,30,11,56,19.20
2007,05,30,11,57,19.30
2007,05,30,11,58,19.50
2007,05,30,11,59,19.60
2007,05,30,12,00,19.60
2007,05,30,12,01,19.80
2007,05,30,12,02,19.80
2007,05,30,12,03,19.80
2007,05,30,12,04,19.80
2007,05,30,12,05,19.80
2007,05,30,12,06,19.70
2007,05,30,12,07,19.80
2007,05,30,12,08,19.80
2007,05,30,12,09,19.80
2007,05,30,12,10,19.80
2007,05,30,12,11,19.70
2007,05,30,12,12,19.60
2007,05,30,12,13,19.60
2007,05,30,12,14,19.60
2007,05,30,12,15,19.70
2007,05,30,12,16,19.70
2007,05,30,12,17,19.90
2007,05,30,12,18,20.10
2007,05,30,12,19,20.20
2007,05,30,12,20,20.20
2007,05,30,12,21,20.10
2007,05,30,12,22,20.20
2007,05,30,12,23,20.20
2007,05,30,12,24,20.10
2007,05,30,12,25,20.00
2007,05,30,12,26,19.90
2007,05,30,12,27,19.90
2007,05,30,12,28,19.90
2007,05,30,12,29,19.90
2007,05,30,12,30,20.00
2007,05,30,12,31,20.10
2007,05,30,12,32,20.10
2007,05,30,12,33,20.20
2007,05,30,12,34,20.20
2007,05,30,12,35,20.20
2007,05,30,12,36,20.20
2007,05,30,12,37,20.30
2007,05,30,12,38,20.50
2007,05,30,12,39,20.50
2007,05,30,12,40,20.50
2007,05,30,12,41,20.40
2007,05,30,12,42,20.40
2007,05,30,12,43,20.60
2007,05,30,12,44,20.80
2007,05,30,12,45,21.00
2007,05,30,12,46,20.90
2007,05,30,12,47,21.00
2007,05,30,12,48,21.10
2007,05,30,12,49,21.20
2007,05,30,12,50,21.20
2007,05,30,12,51,21.30
2007,05,30,12,52,21.30
2007,05,30,12,53,21.30
2007,05,30,12,54,21.30
2007,05,30,12,55,21.40
2007,05,30,12,56,21.40
2007,05,30,12,57,21.40
2007,05,30,12,58,21.50
2007,05,30,12,59,21.40
2007,05,30,13,00,21.40
2007,05,30,13,01,21.30
2007,05,30,13,02,21.20
2007,05,30,13,03,21.10
2007,05,30,13,04,21.00
2007,05,30,13,05,21.00
2007,05,30,13,06,21.00
2007,05,30,13,07,21.00
2007,05,30,13,08,20.90
2007,05,30,13,09,20.90
2007,05,30,13,10,20.80
2007,05,30,13,11,20.70
2007,05,30,13,12,20.80
2007,05,30,13,13,20.90
2007,05,30,13,14,21.00
2007,05,30,13,15,21.00
2007,05,30,13,16,20.90
2007,05,30,13,17,20.80
2007,05,30,13,18,20.80
2007,05,30,13,19,20.80
2007,05,30,13,20,20.80
2007,05,30,13,21,20.80
2007,05,30,13,22,20.90
2007,05,30,13,23,20.80
2007,05,30,13,24,20.70
2007,05,30,13,25,20.60
2007,05,30,13,26,20.60
2007,05,30,13,27,20.70
2007,05,30,13,28,20.90
2007,05,30,13,29,20.90
2007,05,30,13,30,20.90
2007,05,30,13,31,20.90
2007,05,30,13,32,20.90
2007,05,30,13,33,21.00
2007,05,30,13,34,21.00
2007,05,30,13,35,21.00
2007,05,30,13,36,21.10
2007,05,30,13,37,21.00
2007,05,30,13,38,20.80
2007,05,30,13,39,20.60
2007,05,30,13,40,20.50
2007,05,30,13,41,20.60
2007,05,30,13,42,20.70
2007,05,30,13,43,20.70
2007,05,30,13,44,20.60
2007,05,30,13,45,20.50
2007,05,30,13,46,20.40
2007,05,30,13,47,20.40
2007,05,30,13,48,20.30
2007,05,30,13,49,20.30
2007,05,30,13,50,20.30
2007,05,30,13,51,20.30
2007,05,30,13,52,20.30
2007,05,30,13,53,20.40
2007,05,30,13,54,20.60
2007,05,30,13,55,20.70
2007,05,30,13,56,20.70
2007,05,30,13,57,20.80
2007,05,30,13,58,20.80
2007,05,30,13,59,20.70
2007,05,30,14,00,20.70
2007,05,30,14,01,20.90
2007,05,30,14,02,21.20
2007,05,30,14,03,21.40
2007,05,30,14,04,21.70
2007,05,30,14,05,21.80
2007,05,30,14,06,21.80
2007,05,30,14,07,21.60
2007,05,30,14,08,21.70
2007,05,30,14,09,21.70
2007,05,30,14,10,21.70
2007,05,30,14,11,21.70
2007,05,30,14,12,21.70
2007,05,30,14,13,21.70
2007,05,30,14,14,21.60
2007,05,30,14,15,21.60
2007,05,30,14,16,21.60
2007,05,30,14,17,21.80
2007,05,30,14,18,21.50
2007,05,30,14,19,21.10
2007,05,30,14,20,20.70
2007,05,30,14,21,20.40
2007,05,30,14,22,20.20
2007,05,30,14,23,20.20
2007,05,30,14,24,20.00
2007,05,30,14,25,19.80
2007,05,30,14,26,19.70
2007,05,30,14,27,19.60
2007,05,30,14,28,19.50
2007,05,30,14,29,19.90
2007,05,30,14,30,20.10
2007,05,30,14,31,20.20
2007,05,30,14,32,20.50
2007,05,30,14,33,20.80
2007,05,30,14,34,20.90
2007,05,30,14,35,21.00
2007,05,30,14,36,21.10
2007,05,30,14,37,21.10
2007,05,30,14,38,21.10
2007,05,30,14,39,21.00
2007,05,30,14,40,21.00
2007,05,30,14,41,21.20
2007,05,30,14,42,21.30
2007,05,30,14,43,21.30
2007,05,30,14,44,21.30
2007,05,30,14,45,21.20
2007,05,30,14,46,21.10
2007,05,30,14,47,21.00
2007,05,30,14,48,20.90
2007,05,30,14,49,20.90
2007,05,30,14,50,21.10
2007,05,30,14,51,21.10
2007,05,30,14,52,21.00
2007,05,30,14,53,20.90
2007,05,30,14,54,20.80
2007,05,30,14,55,20.70
2007,05,30,14,56,20.50
2007,05,30,14,57,20.30
2007,05,30,14,58,20.20
2007,05,30,14,59,20.20
2007,05,30,15,00,20.30
2007,05,30,15,01,20.40
2007,05,30,15,02,20.50
2007,05,30,15,03,20.60
2007,05,30,15,04,20.60
2007,05,30,15,05,20.50
2007,05,30,15,06,20.50
2007,05,30,15,07,20.70
2007,05,30,15,08,20.60
2007,05,30,15,09,20.80
2007,05,30,15,10,20.80
2007,05,30,15,11,20.90
2007,05,30,15,12,21.00
2007,05,30,15,13,21.00
2007,05,30,15,14,21.00
2007,05,30,15,15,20.90
2007,05,30,15,16,20.80
2007,05,30,15,17,20.70
2007,05,30,15,18,20.60
2007,05,30,15,19,20.70
2007,05,30,15,20,20.70
2007,05,30,15,21,20.70
2007,05,30,15,22,20.70
2007,05,30,15,23,20.80
2007,05,30,15,24,21.00
2007,05,30,15,25,21.30
2007,05,30,15,26,21.50
2007,05,30,15,27,21.70
2007,05,30,15,28,21.60
2007,05,30,15,29,21.60
2007,05,30,15,30,21.50
2007,05,30,15,31,21.40
2007,05,30,15,32,21.40
2007,05,30,15,33,21.20
2007,05,30,15,34,21.00
2007,05,30,15,35,20.90
2007,05,30,15,36,21.00
2007,05,30,15,37,21.00
2007,05,30,15,38,21.00
2007,05,30,15,39,21.20
2007,05,30,15,40,21.30
2007,05,30,15,41,21.30
2007,05,30,15,42,21.30
2007,05,30,15,43,21.30
2007,05,30,15,44,21.10
2007,05,30,15,45,21.10
2007,05,30,15,46,21.30
2007,05,30,15,47,21.50
2007,05,30,15,48,21.60
2007,05,30,15,49,21.80
2007,05,30,15,50,22.00
2007,05,30,15,51,22.00
2007,05,30,15,52,22.00
2007,05,30,15,53,22.10
2007,05,30,15,54,22.20
2007,05,30,15,55,22.30
2007,05,30,15,56,22.30
2007,05,30,15,57,22.20
2007,05,30,15,58,22.10
2007,05,30,15,59,22.10
2007,05,30,16,00,22.10
2007,05,30,16,01,22.00
2007,05,30,16,02,22.00
2007,05,30,16,03,22.00
2007,05,30,16,04,22.00
2007,05,30,16,05,22.00
2007,05,30,16,06,22.10
2007,05,30,16,07,22.00
2007,05,30,16,08,22.00
2007,05,30,16,09,22.00
2007,05,30,16,10,22.00
2007,05,30,16,11,22.00
2007,05,30,16,12,22.00
2007,05,30,16,13,21.90
2007,05,30,16,14,21.90
2007,05,30,16,15,21.90
2007,05,30,16,16,22.00
2007,05,30,16,17,22.00
2007,05,30,16,18,22.00
2007,05,30,16,19,22.00
2007,05,30,16,20,22.00
2007,05,30,16,21,22.00
2007,05,30,16,22,22.00
2007,05,30,16,23,22.00
2007,05,30,16,24,22.00
2007,05,30,16,25,21.90
2007,05,30,16,26,21.90
2007,05,30,16,27,21.80
2007,05,30,16,28,21.80
2007,05,30,16,29,21.90
2007,05,30,16,30,21.90
2007,05,30,16,31,21.90
2007,05,30,16,32,21.80
2007,05,30,16,33,21.80
2007,05,30,16,34,21.80
2007,05,30,16,35,21.90
2007,05,30,16,36,21.90
2007,05,30,16,37,21.90
2007,05,30,16,38,21.80
2007,05,30,16,39,21.80
2007,05,30,16,40,21.30
2007,05,30,16,41,20.80
2007,05,30,16,42,20.50
2007,05,30,16,43,20.20
2007,05,30,16,44,19.90
2007,05,30,16,45,19.70
2007,05,30,16,46,19.70
2007,05,30,16,47,19.70
2007,05,30,16,48,19.80
2007,05,30,16,49,19.70
2007,05,30,16,50,19.30
2007,05,30,16,51,18.90
2007,05,30,16,52,18.50
2007,05,30,16,53,18.00
2007,05,30,16,54,17.80
2007,05,30,16,55,17.60
2007,05,30,16,56,17.40
2007,05,30,16,57,17.30
2007,05,30,16,58,17.20
2007,05,30,16,59,16.90
2007,05,30,17,00,16.60
2007,05,30,17,01,16.50
2007,05,30,17,02,16.20
2007,05,30,17,03,16.00
2007,05,30,17,04,15.80
2007,05,30,17,05,15.60
2007,05,30,17,06,15.60
2007,05,30,17,07,15.60
2007,05,30,17,08,15.40
2007,05,30,17,09,15.30
2007,05,30,17,10,15.10
2007,05,30,17,11,15.00
2007,05,30,17,12,15.00
2007,05,30,17,13,14.90
2007,05,30,17,14,14.80
2007,05,30,17,15,14.60
2007,05,30,17,16,14.60
2007,05,30,17,17,14.50
2007,05,30,17,18,14.40
2007,05,30,17,19,14.40
2007,05,30,17,20,14.40